User: anonymous
Location: Unspecified
(0.0000°N, 0.0000°E)
Time: 21:15:30
(UTC+00:00)
Language:

Aussat K1 - Orbit

View from above orbital plane
View from above orbital plane
View from above satellite
View from above satellite

Ground track
Ground track

The orbit data is extracted from the following two-line orbital elements,

1 15993U 85076B   14210.53863795 -.00000008  00000-0  00000+0 0  8152
2 15993 014.8321 018.7616 0002046 155.3730 155.6244 00.99767496 76280
Epoch (UTC): 29 July 2014 12:55:38
Eccentricity: 0.0002046
inclination: 14.8321°
perigee height: 35919 km
apogee height: 35937 km
right ascension of ascending node: 18.7616°
argument of perigee: 155.3730°
revolutions per day: 0.99767496
mean anomaly at epoch: 155.6244°
orbit number at epoch: 7628

The dashed part of the orbit path shows where the satellite is in the earth's shadow,  

DLR